Location: Dürabuch
(48.2640°N, 11.2185°E)
Time: 19:55:26
(UTC+00:00)

CZ-2D R/B - Pass Details

Date: 28 May 2025
Orbit: 790 x 841 km, 98.8° (Epoch: 16 June)

Event Time Altitude Azimuth Distance (km) Brightness Sun altitude
Rises 01:52:47 0° 14° (NNE) 3,410 6.7 -11.6°
Reaches altitude 10° 01:55:10 10° 14° (NNE) 2,471 5.8 -11.3°
Maximum altitude 02:00:39 84° 288° (WNW) 852 2.2 -10.8°
Enters shadow 02:05:55 11° 200° (SSW) 2,370 4.0 -10.2°
